Weather in Nikolaevka

Russia / Ulyanovsk Oblast     53°07′44″N   47°12′28″E
temp.,
°C
wind,
m/s
gust,
m/s
humid.,
%
clouds,
%
prec.,
mm/h
press.,
hPa
HPBL,
m
6 may, thu
thu601:00+5wsw37825 0.0 1015119
04:00+5wsw36875 0.0 101699
07:00+8sw398121 0.0 1017223
10:00+14sw56575 0.0 1017696
13:00+17sw564872 0.0 10171917
16:00+17ssw464996 0.0 10161692
19:00+15s4762100 0.0 1016196
22:00+11s3668100 0.0 101789
7 may, fri
fri701:00+9s3369100 0.0 101750
04:00+9s3471100 0.0 101761
07:00+10s41172100 0.0 1017305
10:00+15s61054100 0.0 1016737
13:00+17ssw7943100 0.0 10161843
16:00+18s6946100 0.0 10152299
19:00+14sw61166100 0.1 1016449
22:00+10ssw2389100 1.1 1017131
8 may, sat
sat801:00+10sse2692100 2.1 1017213
04:00+10s2392100 2.1 101776
07:00+11sse128627 0.0 1017149
10:00+15sse46666 0.0 1017815
13:00+19s685151 0.1 10152164
16:00+20ssw7844100 0.1 10142212
19:00+17s48607 0.0 1014240
22:00+13sse346997 0.0 101448
9 may, sun
sun901:00+12sse3772100 0.0 101398
04:00+12sse41269100 0.0 1012277
07:00+13s51368100 0.0 1012375
10:00+17ssw475796 0.0 1012661
13:00+21s695095 0.1 10111931
16:00+18ssw3567100 0.7 1011133
19:00+12nnw6792100 1.2 1014254
22:00+10n61192100 1.3 1016355
10 may, mon
mon1001:00+9nne61094100 0.4 1017435
04:00+9ne71294100 0.5 1018414
07:00+9nne61094100 0.0 1019430
10:00+10nne71092100 0.6 1021416
13:00+12ne81083100 0.1 1022566
16:00+16ne7971100 0.1 1022789
19:00+14nne7138098 0.0 1023461
22:00+12ne61489100 0.0 1024357